Friday Harbor, WA
on Saturday, November 3, 2012

Saturday
Previous Day Next Day
Daily Summary
 ActualAverageRecord
Temperature
Mean Temperature °F °F  
Max Temperature 55°F 50°F 64°F (2010)
Min Temperature 50°F 38°F 28°F (2002)
Degree Days
Heating Degree Days 12    
Growing Degree Days3 (Base °F )  
Moisture
Dew Point 51°F   
Average Humidity 91    
Maximum Humidity 100    
Minimum Humidity 82    
Precipitation
Precipitation 0.00 in in in ()
Wind
Wind Speed 7 mph   
Max Wind Speed 13 mph   
Max Gust Speed 18 mph   
Visibility 10 miles   
Events Rain   
Averages and records for this station are not official NWS values.
Key: T is trace of precipitation, MM is missing value
Source: NWS Daily Summary
Seasonal Weather Averages
Time(PDT)TemperatureDew PointHumidity Pressure Visibility Wind DirectionWind SpeedGust SpeedPrecipitationEvents Conditions
12:53 AM 52.0°F 50.0°F 93% 29.93 in 10.0 miles East 10.4 mph - 0.00 in Rain Light Rain
1:53 AM 53.1°F 48.9°F 86% 29.93 in 10.0 miles ESE 12.7 mph - 0.00 in   Overcast
2:07 AM 53.6°F 48.2°F 82% 29.92 in 10.0 miles ESE 9.2 mph - N/A   Overcast
2:53 AM 53.1°F 48.9°F 86% 29.93 in 10.0 miles ESE 11.5 mph 18.4 mph N/A   Overcast
3:09 AM 53.6°F 48.2°F 82% 29.93 in 10.0 miles ESE 11.5 mph - N/A   Overcast
3:53 AM 53.1°F 50.0°F 89% 29.94 in 10.0 miles SE 10.4 mph - N/A   Overcast
4:53 AM 53.1°F 50.0°F 89% 29.94 in 10.0 miles SE 9.2 mph - N/A   Overcast
5:53 AM 53.1°F 50.0°F 89% 29.96 in 10.0 miles SE 6.9 mph - N/A   Overcast
6:53 AM 53.1°F 50.0°F 89% 29.96 in 10.0 miles SE 6.9 mph - N/A   Overcast
7:40 AM 53.6°F 50.0°F 88% 29.97 in 10.0 miles SE 5.8 mph - N/A   Overcast
7:53 AM 53.1°F 50.0°F 89% 29.97 in 10.0 miles SE 5.8 mph - N/A   Overcast
8:53 AM 53.1°F 50.0°F 89% 29.98 in 10.0 miles ESE 6.9 mph - N/A   Overcast
9:53 AM 53.1°F 50.0°F 89% 29.98 in 10.0 miles ESE 5.8 mph - N/A   Overcast
10:53 AM 54.0°F 50.0°F 86% 29.98 in 10.0 miles East 5.8 mph - N/A   Overcast
11:53 AM 54.0°F 51.1°F 90% 29.99 in 10.0 miles ESE 4.6 mph - N/A   Overcast
12:53 PM 53.1°F 51.1°F 93% 30.00 in 7.0 miles NE 4.6 mph - 0.00 in Rain Light Rain
12:56 PM 53.6°F 51.8°F 94% 30.00 in 7.0 miles NE 3.5 mph - 0.00 in Rain Light Rain
1:53 PM 55.0°F 53.1°F 93% 30.00 in 10.0 miles ENE 4.6 mph - 0.00 in   Overcast
2:23 PM 55.4°F 53.6°F 94% 30.00 in 10.0 miles ENE 4.6 mph - N/A   Overcast
2:53 PM 55.9°F 53.1°F 90% 30.01 in 10.0 miles NE 3.5 mph - N/A   Mostly Cloudy
3:53 PM 55.9°F 53.1°F 90% 30.02 in 10.0 miles Calm Calm - N/A   Overcast
4:53 PM 55.0°F 53.1°F 93% 30.04 in 10.0 miles Calm Calm - N/A   Overcast
5:01 PM 55.4°F 53.6°F 94% 30.04 in 10.0 miles ESE 3.5 mph - N/A   Overcast
5:10 PM 53.6°F 51.8°F 94% 30.04 in 10.0 miles Calm Calm - N/A   Overcast
5:53 PM 52.0°F 51.1°F 97% 30.08 in 8.0 miles WSW 4.6 mph - 0.00 in Rain Light Rain
6:02 PM 51.8°F 51.8°F 100% 30.08 in 10.0 miles SW 4.6 mph - 0.00 in Rain Light Rain
6:53 PM 53.1°F 51.1°F 93% 30.08 in 10.0 miles South 8.1 mph - 0.00 in   Partly Cloudy
7:53 PM 53.1°F 50.0°F 89% 30.10 in 10.0 miles SW 4.6 mph - N/A   Overcast
8:53 PM 51.1°F 50.0°F 96% 30.12 in 10.0 miles Calm Calm - N/A   Mostly Cloudy
9:53 PM 51.1°F 48.9°F 92% 30.16 in 8.0 miles SE 4.6 mph - N/A   Overcast
10:53 PM 51.1°F 50.0°F 96% 30.16 in 10.0 miles Calm Calm - N/A   Overcast
11:53 PM 50.0°F 50.0°F 100% 30.17 in 9.0 miles Calm Calm - 0.00 in   Mostly Cloudy
Moon Phase
Nov. 03 Nov. 06 Nov. 13 Nov. 20 Nov. 28
Sunrise:08:02 AM (PDT) Moon Rise:09:27 PM (PDT)11/3
Sunset:05:48 PM (PDT) Moon Set:12:18 PM (PDT)11/3

Copyright © 2014 The Weather Underground, Inc.